TimeCST,TemperatureF,Dew PointF,Humidity,Sea Level PressureIn,VisibilityMPH,Wind Direction,Wind SpeedMPH,Gust SpeedMPH,PrecipitationIn,Events,Conditions,WindDirDegrees,DateUTC
12:53 AM,30.0,28.0,92,30.12,10.0,Calm,Calm,-,N/A,,Clear,0,2014-01-20 06:53:00
1:53 AM,30.0,27.0,88,30.12,10.0,Calm,Calm,-,N/A,,Clear,0,2014-01-20 07:53:00
2:53 AM,30.9,27.0,85,30.11,10.0,Calm,Calm,-,N/A,,Clear,0,2014-01-20 08:53:00
3:53 AM,28.9,26.1,89,30.10,10.0,Calm,Calm,-,N/A,,Clear,0,2014-01-20 09:53:00
4:53 AM,28.0,25.0,88,30.10,10.0,Calm,Calm,-,N/A,,Clear,0,2014-01-20 10:53:00
5:53 AM,28.0,25.0,88,30.10,10.0,Calm,Calm,-,N/A,,Clear,0,2014-01-20 11:53:00
6:53 AM,27.0,23.0,85,30.11,10.0,Calm,Calm,-,N/A,,Clear,0,2014-01-20 12:53:00
7:53 AM,33.1,30.0,89,30.11,10.0,Calm,Calm,-,N/A,,Clear,0,2014-01-20 13:53:00
8:53 AM,43.0,35.1,74,30.12,10.0,Calm,Calm,-,N/A,,Clear,0,2014-01-20 14:53:00
9:53 AM,52.0,34.0,50,30.13,10.0,SSW,5.8,-,N/A,,Clear,200,2014-01-20 15:53:00
10:53 AM,60.1,28.9,31,30.11,10.0,WSW,8.1,-,N/A,,Clear,250,2014-01-20 16:53:00
11:53 AM,62.1,30.0,30,30.07,10.0,WSW,10.4,-,N/A,,Clear,240,2014-01-20 17:53:00
12:53 PM,64.9,27.0,24,30.03,10.0,West,8.1,-,N/A,,Clear,260,2014-01-20 18:53:00
1:53 PM,66.0,28.0,24,30.00,10.0,South,5.8,-,N/A,,Clear,190,2014-01-20 19:53:00
2:53 PM,66.0,28.0,24,29.99,10.0,WSW,6.9,-,N/A,,Clear,240,2014-01-20 20:53:00
3:53 PM,64.9,28.9,26,29.98,10.0,SW,9.2,-,N/A,,Clear,220,2014-01-20 21:53:00
4:53 PM,62.1,30.0,30,29.98,10.0,SSW,4.6,-,N/A,,Clear,210,2014-01-20 22:53:00
5:53 PM,54.0,33.1,45,29.98,10.0,Calm,Calm,-,N/A,,Clear,0,2014-01-20 23:53:00
6:53 PM,48.0,33.1,56,29.99,10.0,Calm,Calm,-,N/A,,Clear,0,2014-01-21 00:53:00
7:53 PM,45.0,35.1,68,29.99,10.0,Calm,Calm,-,N/A,,Clear,0,2014-01-21 01:53:00
8:53 PM,43.0,34.0,71,29.99,10.0,Calm,Calm,-,N/A,,Clear,0,2014-01-21 02:53:00
9:53 PM,46.0,36.0,68,29.98,10.0,WSW,3.5,-,N/A,,Clear,250,2014-01-21 03:53:00
10:53 PM,39.9,34.0,79,29.96,10.0,SSW,4.6,-,N/A,,Clear,210,2014-01-21 04:53:00
11:53 PM,42.1,37.0,82,29.95,10.0,SW,3.5,-,N/A,,Clear,220,2014-01-21 05:53:00